TimeEDT,TemperatureF,Dew PointF,Humidity,Sea Level PressureIn,VisibilityMPH,Wind Direction,Wind SpeedMPH,Gust SpeedMPH,PrecipitationIn,Events,Conditions,WindDirDegrees,DateUTC
12:15 AM,73.4,68.9,86,30.40,10.0,Calm,Calm,-,N/A,,Clear,0,2013-07-17 04:15:00
12:35 AM,73.0,68.4,85,30.40,10.0,Calm,Calm,-,N/A,,Clear,0,2013-07-17 04:35:00
12:55 AM,73.0,68.2,85,30.40,10.0,Calm,Calm,-,N/A,,Clear,0,2013-07-17 04:55:00
1:15 AM,72.5,68.4,87,30.40,10.0,Calm,Calm,-,N/A,,Clear,0,2013-07-17 05:15:00
1:35 AM,72.5,68.0,86,30.39,10.0,Calm,Calm,-,N/A,,Clear,0,2013-07-17 05:35:00
1:55 AM,70.3,68.4,93,30.39,10.0,Calm,Calm,-,N/A,,Clear,0,2013-07-17 05:55:00
2:15 AM,71.4,68.2,89,30.38,10.0,Calm,Calm,-,N/A,,Clear,0,2013-07-17 06:15:00
2:35 AM,72.1,68.0,87,30.38,10.0,Calm,Calm,-,N/A,,Clear,0,2013-07-17 06:35:00
2:55 AM,69.3,68.0,96,30.38,10.0,Calm,Calm,-,N/A,,Clear,0,2013-07-17 06:55:00
3:15 AM,70.7,68.0,91,30.38,10.0,Calm,Calm,-,N/A,,Clear,0,2013-07-17 07:15:00
3:35 AM,70.9,68.0,91,30.38,10.0,Calm,Calm,-,N/A,,Clear,0,2013-07-17 07:35:00
3:55 AM,69.3,68.0,96,30.38,10.0,Calm,Calm,-,N/A,,Clear,0,2013-07-17 07:55:00
4:15 AM,70.9,68.0,91,30.38,10.0,Calm,Calm,-,N/A,,Clear,0,2013-07-17 08:15:00
4:35 AM,69.3,68.0,96,30.38,10.0,Calm,Calm,-,N/A,,Clear,0,2013-07-17 08:35:00
4:55 AM,70.3,67.8,92,30.38,10.0,Calm,Calm,-,N/A,,Clear,0,2013-07-17 08:55:00
5:15 AM,69.8,68.0,94,30.38,10.0,Calm,Calm,-,N/A,,Clear,0,2013-07-17 09:15:00
5:35 AM,68.9,68.0,97,30.39,7.0,North,3.5,-,N/A,,Clear,350,2013-07-17 09:35:00
5:55 AM,68.0,67.6,99,30.39,4.0,Calm,Calm,-,N/A,,Clear,0,2013-07-17 09:55:00
6:15 AM,69.3,68.0,96,30.39,10.0,Calm,Calm,-,N/A,,Clear,0,2013-07-17 10:15:00
6:35 AM,69.3,68.2,96,30.40,7.0,Calm,Calm,-,N/A,,Clear,0,2013-07-17 10:35:00
6:55 AM,69.8,68.0,94,30.40,7.0,Calm,Calm,-,N/A,,Clear,0,2013-07-17 10:55:00
7:15 AM,68.5,67.6,97,30.41,5.0,Calm,Calm,-,N/A,,Clear,0,2013-07-17 11:15:00
7:35 AM,69.3,68.0,96,30.41,7.0,Calm,Calm,-,N/A,,Scattered Clouds,0,2013-07-17 11:35:00
7:55 AM,70.2,68.7,95,30.41,7.0,Calm,Calm,-,N/A,,Clear,0,2013-07-17 11:55:00
8:15 AM,72.5,69.1,89,30.41,10.0,Calm,Calm,-,N/A,,Scattered Clouds,0,2013-07-17 12:15:00
8:35 AM,70.3,68.7,95,30.42,10.0,Calm,Calm,-,N/A,,Mostly Cloudy,0,2013-07-17 12:35:00
8:55 AM,73.8,69.1,85,30.42,10.0,Calm,Calm,-,N/A,,Overcast,0,2013-07-17 12:55:00
9:15 AM,74.3,70.2,87,30.42,10.0,Calm,Calm,-,N/A,,Mostly Cloudy,0,2013-07-17 13:15:00
9:35 AM,75.2,70.2,84,30.42,10.0,Calm,Calm,-,N/A,,Scattered Clouds,0,2013-07-17 13:35:00
9:55 AM,75.4,70.3,84,30.42,10.0,Calm,Calm,-,N/A,,Mostly Cloudy,0,2013-07-17 13:55:00
10:15 AM,76.3,70.3,82,30.42,10.0,Calm,Calm,-,N/A,,Mostly Cloudy,0,2013-07-17 14:15:00
10:35 AM,78.1,70.9,78,30.41,10.0,North,3.5,-,N/A,,Scattered Clouds,360,2013-07-17 14:35:00
10:55 AM,77.7,70.2,77,30.42,10.0,North,3.5,-,N/A,,Mostly Cloudy,10,2013-07-17 14:55:00
11:15 AM,78.4,70.7,77,30.41,10.0,North,3.5,-,N/A,,Scattered Clouds,10,2013-07-17 15:15:00
11:35 AM,78.6,70.5,76,30.41,10.0,NNW,3.5,-,N/A,,Mostly Cloudy,340,2013-07-17 15:35:00
11:55 AM,79.5,71.2,76,30.41,10.0,North,3.5,-,N/A,,Mostly Cloudy,350,2013-07-17 15:55:00
12:15 PM,80.2,70.0,71,30.40,10.0,NE,5.8,-,N/A,,Mostly Cloudy,50,2013-07-17 16:15:00
12:35 PM,80.8,69.3,68,30.40,10.0,NNE,5.8,-,N/A,,Mostly Cloudy,20,2013-07-17 16:35:00
12:55 PM,81.3,70.0,68,30.39,10.0,ENE,3.5,-,N/A,,Scattered Clouds,60,2013-07-17 16:55:00
1:15 PM,82.6,69.3,64,30.39,10.0,North,4.6,-,N/A,Thunderstorm,Scattered Clouds,360,2013-07-17 17:15:00
1:35 PM,83.7,69.1,61,30.38,10.0,North,4.6,-,N/A,,Scattered Clouds,10,2013-07-17 17:35:00
1:55 PM,82.6,68.2,62,30.37,10.0,NNW,6.9,-,N/A,,Mostly Cloudy,340,2013-07-17 17:55:00
2:15 PM,85.1,69.6,60,30.36,10.0,NNE,5.8,-,N/A,,Mostly Cloudy,30,2013-07-17 18:15:00
2:35 PM,84.2,69.6,61,30.35,10.0,NNW,6.9,-,N/A,,Scattered Clouds,330,2013-07-17 18:35:00
2:55 PM,83.3,68.9,62,30.33,10.0,NNE,3.5,-,N/A,,Clear,20,2013-07-17 18:55:00
3:15 PM,83.1,69.4,63,30.33,10.0,NNE,3.5,-,N/A,,Scattered Clouds,20,2013-07-17 19:15:00
3:35 PM,82.2,68.9,64,30.32,10.0,NNE,3.5,-,N/A,,Mostly Cloudy,20,2013-07-17 19:35:00
3:55 PM,80.6,70.5,71,30.32,10.0,NNW,4.6,-,N/A,Thunderstorm,Mostly Cloudy,340,2013-07-17 19:55:00
4:15 PM,80.2,70.7,73,30.32,10.0,NE,4.6,-,N/A,Rain-Thunderstorm,Light Thunderstorms and Rain,40,2013-07-17 20:15:00
4:35 PM,78.6,71.1,78,30.31,10.0,Calm,Calm,-,N/A,Rain,Light Rain,0,2013-07-17 20:35:00
4:55 PM,79.2,71.6,78,30.30,10.0,NW,3.5,-,N/A,Thunderstorm,Clear,320,2013-07-17 20:55:00
5:15 PM,79.7,71.4,76,30.32,10.0,North,4.6,-,N/A,,Scattered Clouds,360,2013-07-17 21:15:00
5:35 PM,79.7,71.4,76,30.31,10.0,Calm,Calm,-,N/A,Thunderstorm,Mostly Cloudy,0,2013-07-17 21:35:00
6:19 PM,77.0,73.4,89,30.31,10.0,Calm,Calm,-,N/A,Rain-Thunderstorm,Light Thunderstorms and Rain,0,2013-07-17 22:19:00
6:35 PM,75.2,72.5,91,30.31,7.0,NE,4.6,-,0.02,Rain-Thunderstorm,Light Thunderstorms and Rain,50,2013-07-17 22:35:00
6:55 PM,74.1,73.4,98,30.32,3.0,Calm,Calm,-,0.02,Thunderstorm,Mostly Cloudy,0,2013-07-17 22:55:00
7:15 PM,72.5,68.4,87,30.33,10.0,NE,5.8,-,N/A,Rain-Thunderstorm,Light Thunderstorms and Rain,40,2013-07-17 23:15:00
7:35 PM,70.7,66.7,87,30.32,10.0,ENE,5.8,-,N/A,Thunderstorm,Thunderstorm,60,2013-07-17 23:35:00
7:55 PM,69.8,66.2,88,30.32,10.0,SE,3.5,-,N/A,Thunderstorm,Thunderstorm,130,2013-07-17 23:55:00
8:15 PM,68.9,68.0,97,30.33,10.0,Calm,Calm,-,N/A,Thunderstorm,Mostly Cloudy,0,2013-07-18 00:15:00
8:35 PM,68.9,67.1,94,30.34,10.0,Calm,Calm,-,N/A,Thunderstorm,Overcast,0,2013-07-18 00:35:00
8:55 PM,69.1,67.1,93,30.35,10.0,NW,3.5,-,N/A,,Overcast,320,2013-07-18 00:55:00
9:15 PM,68.9,66.7,93,30.36,10.0,Calm,Calm,-,N/A,Thunderstorm,Overcast,0,2013-07-18 01:15:00
9:35 PM,69.1,66.2,91,30.37,10.0,Calm,Calm,-,N/A,Thunderstorm,Overcast,0,2013-07-18 01:35:00
9:55 PM,69.4,66.2,89,30.36,10.0,Calm,Calm,-,N/A,Thunderstorm,Thunderstorm,0,2013-07-18 01:55:00
10:15 PM,68.2,67.1,96,30.36,10.0,Calm,Calm,-,N/A,Thunderstorm,Thunderstorm,0,2013-07-18 02:15:00
10:35 PM,68.2,68.0,99,30.35,4.0,South,3.5,-,N/A,Thunderstorm,Mostly Cloudy,190,2013-07-18 02:35:00
10:55 PM,68.2,68.0,99,30.35,1.5,Calm,Calm,-,N/A,Thunderstorm,Overcast,0,2013-07-18 02:55:00
11:35 PM,68.0,68.0,100,30.31,0.2,Calm,Calm,-,N/A,Fog-Thunderstorm,Fog,0,2013-07-18 03:35:00
11:55 PM,68.0,67.5,98,30.32,7.0,Calm,Calm,-,N/A,,Scattered Clouds,0,2013-07-18 03:55:00